This demonstration page uses our WeatherBlox Daily Observations layout. Learn more.

Left ArrowRight Arrow

Hourly Observations for August 5, 2016

Temp ( °F °C ) Dew Point ( °F °C ) Humidity (%) Winds ( mph kmh ) Pressure ( in mb ) Visibility ( mi km ) Precip ( " mm )
12:18 am 00:18 Clear 72 22 70 21 94 94 S 3 6 29.94 1014 5 8.0467 N/A
12:39 am 00:39 Clear 70 21 70 21 100 100 Calm 29.94 1014 7 11.26538 N/A
12:58 am 00:58 Clear 70 21 70 21 100 100 Calm 29.94 1014 7 11.26538 N/A
1:18 am 01:18 Clear 70 21 70 21 100 100 S 5 7 29.94 1014 5 8.0467 N/A
1:39 am 01:39 Clear 72 22 70 21 94 94 SSW 3 6 29.94 1014 7 11.26538 N/A
1:58 am 01:58 Clear 70 21 70 21 100 100 Calm 29.91 1013 7 11.26538 N/A
2:18 am 02:18 Clear 70 21 68 20 94 94 Calm 29.91 1013 7 11.26538 N/A
2:39 am 02:39 Clear 70 21 68 20 94 94 S 3 6 29.91 1013 7 11.26538 N/A
2:58 am 02:58 Clear 70 21 68 20 94 94 S 3 6 29.91 1013 7 11.26538 N/A
3:18 am 03:18 Clear 70 21 68 20 94 94 S 5 7 29.91 1013 5 8.0467 N/A
3:39 am 03:39 Clear 70 21 68 20 94 94 Calm 29.91 1013 5 8.0467 N/A
3:58 am 03:58 Clear 70 21 68 20 94 94 Calm 29.91 1013 5 8.0467 N/A
4:58 am 04:58 Clear 68 20 68 20 100 100 Calm 29.88 1012 4 6.43736 N/A
5:19 am 05:19 Clear 68 20 68 20 100 100 Calm 29.94 1014 4 6.43736 N/A
5:38 am 05:38 Clear 68 20 68 20 100 100 SW 3 6 29.94 1014 3 4.82802 N/A
6:19 am 06:19 Clear 68 20 68 20 100 100 Calm 29.94 1014 3 4.82802 N/A
6:38 am 06:38 Clear 68 20 68 20 100 100 S 6 9 29.94 1014 2 3.21868 N/A
6:58 am 06:58 Sunny 70 21 68 20 94 94 S 6 9 29.88 1012 2.5 4.02335 N/A
7:19 am 07:19 Mostly Cloudy 70 21 68 20 94 94 S 6 9 29.88 1012 1.5 2.41401 N/A
7:38 am 07:38 Mostly Cloudy 70 21 70 21 100 100 S 5 7 29.91 1013 1.75 2.816345 N/A
7:58 am 07:58 Mostly Cloudy 70 21 70 21 100 100 SSE 5 7 29.88 1012 1.75 2.816345 N/A
8:19 am 08:19 Sunny 72 22 70 21 94 94 S 6 9 29.91 1013 2 3.21868 N/A
8:38 am 08:38 Sunny 73 23 72 22 94 94 S 8 13 29.88 1012 3 4.82802 N/A
8:58 am 08:58 Sunny 73 23 72 22 94 94 S 8 13 29.91 1013 4 6.43736 N/A
9:19 am 09:19 Partly Cloudy 75 24 72 22 89 89 SSW 6 9 29.91 1013 5 8.0467 N/A
9:38 am 09:38 Mostly Cloudy 75 24 72 22 89 89 SSW 5 7 29.91 1013 5 8.0467 N/A
9:58 am 09:58 Partly Cloudy 79 26 73 23 84 84 SW 6 9 29.91 1013 7 11.26538 N/A
10:19 am 10:19 Partly Cloudy 79 26 73 23 84 84 SW 3 6 29.94 1014 7 11.26538 N/A
10:38 am 10:38 Partly Cloudy 81 27 75 24 84 84 WSW 8 13 29.91 1013 7 11.26538 N/A
10:58 am 10:58 Partly Cloudy 81 27 73 23 79 79 W 8 13 29.91 1013 10 16.0934 N/A
11:19 am 11:19 Mostly Cloudy 81 27 73 23 79 79 W 9 15 29.91 1013 10 16.0934 N/A
11:38 am 11:38 Mostly Cloudy 82 28 75 24 79 79 W 9 15 29.91 1013 10 16.0934 N/A
11:58 am 11:58 Mostly Cloudy 82 28 75 24 79 79 WNW 10 17 29.91 1013 10 16.0934 N/A
12:19 pm 12:19 Cloudy 81 27 75 24 84 84 N 12 19 29.94 1014 3 4.82802 N/A
12:38 pm 12:38 Partly Cloudy 81 27 75 24 84 84 NNW 3 6 29.91 1013 10 16.0934 N/A
12:58 pm 12:58 Partly Cloudy 84 29 73 23 70 70 NNW 5 7 29.91 1013 10 16.0934 N/A
1:19 pm 13:19 Mostly Cloudy 86 30 73 23 66 66 NW 6 9 29.88 1012 10 16.0934 N/A
1:38 pm 13:38 Partly Cloudy 86 30 72 22 62 62 WNW 5 7 29.88 1012 10 16.0934 N/A
1:58 pm 13:58 Partly Cloudy 88 31 72 22 59 59 NNW 5 7 29.85 1011 10 16.0934 N/A
2:19 pm 14:19 Partly Cloudy 88 31 70 21 55 55 NNW 6 9 29.85 1011 10 16.0934 N/A
2:38 pm 14:38 Partly Cloudy 88 31 70 21 55 55 WNW 6 9 29.85 1011 10 16.0934 N/A
2:59 pm 14:59 Sunny 88 31 70 21 55 55 NW 8 13 29.85 1011 10 16.0934 N/A
3:18 pm 15:18 Sunny 88 31 72 22 59 59 NNW 7 11 29.85 1011 10 16.0934 N/A
3:38 pm 15:38 Partly Cloudy 88 31 72 22 59 59 NW 7 11 29.85 1011 10 16.0934 N/A
3:59 pm 15:59 Partly Cloudy 88 31 72 22 59 59 W 6 9 29.85 1011 10 16.0934 N/A
4:18 pm 16:18 Sunny 88 31 72 22 59 59 W 6 9 29.85 1011 10 16.0934 N/A
4:38 pm 16:38 Sunny 88 31 70 21 55 55 WNW 6 9 29.83 1010 10 16.0934 N/A
4:59 pm 16:59 Sunny 88 31 70 21 55 55 WSW 6 9 29.83 1010 10 16.0934 N/A
5:18 pm 17:18 Sunny 90 32 68 20 49 49 W 8 13 29.83 1010 10 16.0934 N/A
5:38 pm 17:38 Sunny 88 31 70 21 55 55 WNW 7 11 29.83 1010 10 16.0934 N/A
5:59 pm 17:59 Partly Cloudy 86 30 70 21 59 59 W 8 13 29.83 1010 10 16.0934 N/A
6:18 pm 18:18 Partly Cloudy 88 31 72 22 59 59 NW 6 9 29.83 1010 10 16.0934 N/A
6:38 pm 18:38 Mostly Cloudy 88 31 72 22 59 59 NW 8 13 29.83 1010 10 16.0934 N/A
6:59 pm 18:59 Mostly Cloudy 84 29 72 22 66 66 NW 8 13 29.85 1011 10 16.0934 N/A
7:18 pm 19:18 Mostly Cloudy 84 29 73 23 70 70 NW 7 11 29.85 1011 10 16.0934 N/A
7:39 pm 19:39 Partly Cloudy 84 29 73 23 70 70 NW 10 17 29.85 1011 10 16.0934 N/A
7:58 pm 19:58 Mostly Cloudy 82 28 72 22 70 70 NNW 7 11 29.85 1011 10 16.0934 N/A
8:18 pm 20:18 Mostly Cloudy 81 27 72 22 74 74 NNW 8 13 29.85 1011 10 16.0934 N/A
8:39 pm 20:39 Mostly Cloudy 79 26 72 22 79 79 NNW 6 9 29.88 1012 10 16.0934 N/A
8:58 pm 20:58 Mostly Cloudy 81 27 72 22 74 74 NW 5 7 29.88 1012 10 16.0934 N/A
9:18 pm 21:18 Mostly Cloudy 79 26 72 22 79 79 NW 7 11 29.88 1012 10 16.0934 N/A
9:39 pm 21:39 Cloudy 79 26 72 22 79 79 NW 5 7 29.88 1012 10 16.0934 N/A
9:58 pm 21:58 Cloudy 79 26 72 22 79 79 NNW 5 7 29.88 1012 10 16.0934 N/A
10:18 pm 22:18 Cloudy 77 25 72 22 83 83 N 5 7 29.88 1012 10 16.0934 N/A
10:39 pm 22:39 Mostly Cloudy 75 24 72 22 89 89 N 3 6 29.88 1012 10 16.0934 N/A
10:58 pm 22:58 Partly Cloudy 73 23 72 22 94 94 NNW 3 6 29.88 1012 10 16.0934 N/A
11:18 pm 23:18 Mostly Cloudy 75 24 72 22 89 89 NNW 3 6 29.88 1012 10 16.0934 N/A
11:39 pm 23:39 Cloudy 75 24 72 22 89 89 NW 5 7 29.88 1012 10 16.0934 N/A
11:58 pm 23:58 Cloudy 77 25 72 22 83 83 NW 5 7 29.88 1012 10 16.0934 N/A

Powered by AerisWeather